[[{"header":{"parameterUnit":"m.s-1","parameterCategory":1,"la1":30.2991,"la2":30.254,"lo1":-89.0895,"lo2":-89.0444,"dy":0.0017,"dx":0.0017,"nx":28,"ny":28,"refTime":"2023-10-27T21:00:00:Z","depth":0,"parameterNumber":2,"parameterNumberName":"U-component_of_WINDS"},"data":[0,0,0,0,0,0,0,0,0,0,0,0,0,0,0,0,0,0,0,0,0,0,0,0,0,0,0,0,0,0,0,0,0,0,0,0,0,0,0,0,0,0,0,0,0,0,0,0,0,0,0,0,0,0,0,0,0,0,-2.7696,-2.7695,0,-2.7683,-2.7683,-2.7683,-2.757,-2.7567,-2.7565,-2.7562,-2.755,-2.7552,-2.7554,0,0,0,0,0,0,0,0,0,0,0,0,0,-2.7624,-2.7626,-2.7696,-2.7695,-2.7695,-2.7683,-2.7683,-2.7683,-2.7571,-2.7567,-2.7564,-2.7561,-2.7549,-2.7552,-2.7555,0,0,0,0,0,0,0,0,0,0,0,0,0,-2.7638,-2.7627,-2.7696,-2.7638,-2.7633,-2.7683,-2.7683,-2.7683,-2.7571,-2.7567,-2.7563,-2.7559,-2.7548,-2.7552,-2.7555,-2.766,0,0,-2.7565,-2.7567,0,0,0,0,0,0,0,0,-2.7637,-2.7641,-2.7647,-2.7642,-2.7636,-2.7624,-2.7653,-2.7675,-2.7572,-2.7595,-2.7562,-2.7557,-2.7578,-2.7579,-2.7586,-2.766,-2.7659,-2.7566,-2.7568,-2.7569,-2.757,0,0,0,0,0,0,0,-2.7637,-2.7641,-2.7691,-2.7647,-2.764,-2.7613,-2.761,-2.7657,-2.761,-2.7592,-2.7584,-2.7584,-2.7574,-2.7583,-2.7584,-2.7659,-2.7566,-2.7569,-2.7571,-2.7572,-2.782,-2.7824,0,0,0,0,0,0,-2.7644,-2.7641,-2.7691,-2.769,-2.7626,-2.7618,-2.7615,-2.7632,-2.7609,-2.7602,-2.7588,-2.7579,-2.7579,-2.7581,-2.7584,-2.7706,-2.7569,-2.7573,-2.7574,-2.7815,-2.7821,-2.7826,0,0,0,0,0,0,-2.7642,-2.7649,-2.7691,-2.7663,-2.7667,-2.7624,-2.7644,-2.7634,-2.7642,-2.7606,-2.7597,-2.7605,-2.7575,-2.7579,-2.7642,-2.7704,-2.7574,-2.7577,-2.781,-2.7817,-2.7823,-2.7951,0,0,0,0,0,0,-2.7641,-2.7649,-2.7688,-2.7665,-2.7668,-2.775,-2.7648,-2.7637,-2.7648,-2.7637,-2.7619,-2.7612,-2.7572,-2.7638,-2.7646,-2.7706,-2.758,-2.7804,-2.7813,-2.7821,-2.7941,-2.7961,-2.7978,0,0,0,0,0,-2.7639,-2.7725,-2.7691,-2.7698,-2.7716,-2.7754,-2.7756,-2.7708,-2.7654,-2.7693,-2.767,-2.7613,-2.7696,-2.7645,-2.7653,-2.7716,-2.78,-2.7811,-2.7821,-2.7933,-2.7957,-2.7978,0,0,0,0,0,0,-2.7756,-2.772,-2.7683,-2.7763,-2.7763,-2.7735,-2.7782,-2.7735,-2.775,-2.7739,-2.7679,-2.7676,-2.7749,-2.7738,-2.7682,-2.7817,-2.7738,-2.7751,-2.7821,-2.7844,-2.7862,-2.7863,-2.7583,0,0,0,0,0,-2.7792,-2.7825,-2.7792,-2.7866,-2.7868,-2.7826,-2.784,-2.7804,-2.78,-2.78,-2.7781,-2.778,-2.7806,-2.7824,-2.7846,-2.7939,-2.7934,-2.7986,-2.8005,-2.8021,-2.8032,-2.8081,-2.8104,-2.7859,-2.7859,-2.7859,0,0,-2.7865,-2.7849,-2.7874,-2.789,-2.7884,-2.7921,-2.7826,-2.7868,-2.7895,-2.7806,-2.7864,-2.7852,-2.7847,-2.7926,-2.796,-2.7919,-2.8099,-2.8034,-2.8046,-2.8049,-2.8094,-2.8117,-2.8138,-2.7866,-2.7865,-2.7864,0,0,-2.8017,-2.8008,-2.807,-2.8067,-2.8061,-2.8033,-2.8048,-2.8028,-2.8015,-2.8073,-2.8008,-2.8039,-2.8085,-2.8084,-2.809,-2.8245,-2.8193,-2.8254,-2.8351,-2.84,-2.8419,-2.8436,-2.8492,-2.8512,-2.8265,-2.8265,-2.8265,0,-2.8108,-2.816,-2.8107,-2.8154,-2.8164,-2.8085,-2.8148,-2.8148,-2.815,-2.8158,-2.8113,-2.817,-2.8161,-2.8239,-2.8277,-2.8284,-2.83,-2.8255,-2.8421,-2.8437,-2.8452,-2.8504,-2.8525,-2.8273,-2.8272,-2.8271,-2.827,0,-2.8273,-2.831,-2.8361,-2.8365,-2.838,-2.8434,-2.8391,-2.8413,-2.8376,-2.8353,-2.8413,-2.8401,-2.8419,-2.8435,-2.8399,-2.8509,-2.8484,-2.8431,-2.8351,-2.8484,-2.8532,-2.8551,-2.8283,-2.8281,-2.8278,-2.8277,0,0,-2.8497,-2.8473,-2.8492,-2.8493,-2.8482,-2.851,-2.8561,-2.8579,-2.86,-2.8604,-2.8646,-2.8688,-2.8639,-2.8646,-2.8609,-2.8652,-2.8776,-2.8594,-2.8593,-2.8628,-2.8897,-2.8937,-2.8961,-2.8742,-2.8746,-2.8749,-2.8898,0,-2.8643,-2.873,-2.8685,-2.8777,-2.8811,-2.8739,-2.8784,-2.8782,-2.8763,-2.8789,-2.8767,-2.8798,-2.8731,-2.8735,-2.8774,-2.8753,-2.8829,-2.8741,-2.8781,-2.8784,-2.8785,-2.8986,-2.9028,-2.9169,-2.8916,-2.8919,-2.8922,0,-2.8825,-2.8838,-2.8934,-2.8917,-2.893,-2.8971,-2.8985,-2.9011,-2.9008,-2.8991,-2.9,-2.8953,-2.9004,-2.8925,-2.8994,-2.8935,-2.8949,-2.8942,-2.8946,-2.8947,-2.886,-2.8993,-2.9213,-2.9234,-2.8951,-2.8948,-2.8946,0,-2.8979,-2.902,-2.9083,-2.9086,-2.9068,-2.91,-2.9094,-2.9087,-2.9101,-2.9113,-2.9122,-2.914,-2.915,-2.9166,-2.9126,-2.9073,-2.9201,-2.9119,-2.9188,-2.919,-2.9218,-2.9217,-2.9443,-2.9228,-2.9228,-2.9227,-2.9227,0,-2.9147,-2.9209,-2.9152,-2.9191,-2.9258,-2.9207,-2.9275,-2.9261,-2.9256,-2.9292,-2.923,-2.9265,-2.921,-2.924,-2.9209,-2.9272,-2.9277,-2.9264,-2.9256,-2.927,-2.9272,-2.9278,-2.9267,-2.9233,-2.9232,-2.9231,-2.923,0,-2.933,-2.9295,-2.9358,-2.9337,-2.9333,-2.9384,-2.9365,-2.9401,-2.9377,-2.9423,-2.9431,-2.9395,-2.9426,-2.9389,-2.9417,-2.9396,-2.9481,-2.9458,-2.9482,-2.9475,-2.9547,-2.9541,-2.9785,-2.9815,-2.9581,-2.9584,-2.9586,0,-2.9439,-2.9485,-2.9469,-2.9488,-2.9486,-2.9518,-2.9532,-2.9484,-2.9502,-2.9503,-2.9539,-2.9566,-2.9584,-2.9638,-2.9615,-2.9637,-2.9613,-2.9697,-2.9616,-2.9629,-2.9615,-2.9612,-2.9617,-2.9714,-2.9717,-2.9719,-2.9721,0,-2.9637,-2.9617,-2.964,-2.9658,-2.9678,-2.9689,-2.9696,-2.9716,-2.9666,-2.9689,-2.9721,-2.9736,-2.9765,-2.9793,-2.9808,-2.9802,-2.9754,-2.9747,-2.9764,-2.9779,-2.9791,-2.9786,-2.9527,-2.9741,-2.9739,-2.9738,-2.9737,-2.9736,-2.9786,-2.9823,-2.9818,-2.9847,-2.9847,-2.9856,-2.9888,-2.987,-2.9895,-2.9915,-2.9886,-2.9926,-2.9924,-2.9939,-2.994,-2.9971,-2.9935,-2.996,-2.9966,-2.9973,-2.9984,-2.9787,-2.9973,-2.9973,-2.9972,-2.9972,-2.9971,0,-2.998,-2.9974,-3.0,-3.0013,-3.0035,-2.9988,-2.9994,-3.0016,-3.0052,-3.0054,-3.0074,-3.0112,-3.0138,-3.0118,-3.014,-3.0169,-3.0148,-3.0177,-3.0174,-3.0174,-3.0015,-2.9997,-3.0194,-3.0194,-3.0194,-3.0194,-3.0194,-3.0194,-3.0084,-3.0145,-3.0126,-3.0188,-3.0181,-3.022,-3.0228,-3.0236,-3.0237,-3.0281,-3.0303,-3.029,-3.0283,-3.0305,-3.0328,-3.0321,-3.0332,-3.037,-3.0355,-3.0207,-3.0185,-3.0164,-3.0148,-3.0373,-3.0373,-3.0512,-3.0513,-3.0514]},{"header":{"parameterUnit":"m.s-1","parameterCategory":1,"la1":30.2991,"la2":30.254,"lo1":-89.0895,"lo2":-89.0444,"dy":0.0017,"dx":0.0017,"nx":28,"ny":28,"refTime":"2023-10-27T21:00:00:Z","depth":0,"parameterNumber":3,"parameterNumberName":"V-component_of_WINDS"},"data":[0,0,0,0,0,0,0,0,0,0,0,0,0,0,0,0,0,0,0,0,0,0,0,0,0,0,0,0,0,0,0,0,0,0,0,0,0,0,0,0,0,0,0,0,0,0,0,0,0,0,0,0,0,0,0,0,0,0,0.6391,0.6389,0,0.6231,0.6229,0.6227,0.61,0.6099,0.6098,0.6096,0.5931,0.5928,0.5925,0,0,0,0,0,0,0,0,0,0,0,0,0,0.6586,0.6583,0.6391,0.6389,0.6387,0.6231,0.6229,0.6227,0.61,0.6099,0.6097,0.6096,0.5932,0.5929,0.5925,0,0,0,0,0,0,0,0,0,0,0,0,0,0.6472,0.6582,0.6392,0.6305,0.6296,0.6232,0.6229,0.6226,0.6101,0.6099,0.6097,0.6095,0.5934,0.5929,0.5924,0.5932,0,0,0.5909,0.5907,0,0,0,0,0,0,0,0,0.6478,0.6464,0.632,0.6311,0.6301,0.6184,0.6237,0.6128,0.6101,0.6175,0.6096,0.6094,0.6017,0.6005,0.5979,0.5924,0.5917,0.5909,0.5906,0.5904,0.5903,0,0,0,0,0,0,0,0.6486,0.6471,0.6328,0.6318,0.6306,0.6274,0.6256,0.6216,0.6108,0.6168,0.6159,0.6142,0.6011,0.5984,0.5974,0.5915,0.5909,0.5905,0.5902,0.59,0.5861,0.5862,0,0,0,0,0,0,0.6508,0.6478,0.6333,0.6323,0.6387,0.6272,0.6252,0.6223,0.6108,0.6089,0.6143,0.6136,0.5993,0.598,0.5968,0.5971,0.5904,0.5899,0.5897,0.5859,0.5861,0.5863,0,0,0,0,0,0,0.6513,0.6496,0.6339,0.6398,0.6375,0.6271,0.624,0.6221,0.6194,0.609,0.607,0.6136,0.5991,0.5975,0.5942,0.5963,0.5897,0.5893,0.5857,0.5859,0.5862,0.5977,0,0,0,0,0,0,0.6519,0.6499,0.6501,0.6399,0.6373,0.6317,0.6241,0.6219,0.6186,0.6175,0.6077,0.6059,0.5988,0.595,0.5938,0.5956,0.5889,0.5854,0.5858,0.5861,0.5971,0.5983,0.5994,0,0,0,0,0,0.6526,0.6539,0.6501,0.6485,0.6373,0.6319,0.6304,0.6223,0.6188,0.6189,0.6123,0.6062,0.5963,0.5948,0.5933,0.595,0.5852,0.5857,0.5861,0.5966,0.5981,0.5994,0,0,0,0,0,0,0.6645,0.6524,0.6481,0.6461,0.6401,0.6297,0.6296,0.6241,0.6189,0.6181,0.6082,0.6061,0.604,0.5991,0.5977,0.5952,0.59,0.5901,0.5985,0.5999,0.601,0.6023,0.5885,0,0,0,0,0,0.6669,0.6635,0.6531,0.6523,0.6495,0.6402,0.6374,0.6317,0.6251,0.6225,0.6155,0.6093,0.6048,0.602,0.5973,0.5963,0.594,0.5967,0.5979,0.5989,0.5991,0.5984,0.5995,0.5877,0.5877,0.5877,0,0,0.6718,0.6647,0.6632,0.6545,0.6492,0.6459,0.6381,0.6349,0.6323,0.622,0.6186,0.6133,0.6057,0.6037,0.6024,0.5995,0.6019,0.5994,0.6003,0.6,0.599,0.6001,0.6011,0.5879,0.5879,0.5878,0,0,0.679,0.6734,0.6722,0.6671,0.6592,0.6529,0.6527,0.6431,0.6392,0.6357,0.6279,0.6247,0.6171,0.612,0.6085,0.614,0.6083,0.6127,0.6189,0.6183,0.6192,0.62,0.6221,0.623,0.613,0.613,0.6131,0,0.6861,0.6809,0.6723,0.6696,0.6661,0.6566,0.6554,0.6508,0.6418,0.6395,0.6364,0.6268,0.621,0.6177,0.6191,0.6165,0.616,0.6139,0.6198,0.6205,0.6211,0.623,0.6238,0.6136,0.6136,0.6135,0.6135,0,0.6901,0.6866,0.6866,0.6782,0.6746,0.6727,0.6638,0.6613,0.6559,0.65,0.6466,0.6393,0.633,0.6318,0.6264,0.6278,0.6263,0.6216,0.6162,0.623,0.6246,0.6253,0.6145,0.6143,0.6141,0.614,0,0,0.7043,0.6913,0.6915,0.6877,0.6783,0.6754,0.6731,0.667,0.6651,0.6591,0.657,0.6509,0.6465,0.6425,0.6365,0.636,0.6411,0.6314,0.6311,0.6336,0.6423,0.646,0.647,0.6372,0.6373,0.6374,0.643,0,0.7102,0.7056,0.6979,0.6958,0.6925,0.6835,0.6815,0.6756,0.67,0.6664,0.6602,0.6561,0.6506,0.6482,0.6472,0.6407,0.6428,0.6402,0.6352,0.6352,0.6376,0.6478,0.6517,0.6573,0.6436,0.6437,0.6438,0,0.7165,0.7113,0.7089,0.6999,0.6983,0.6966,0.6905,0.6871,0.6802,0.6762,0.6719,0.6654,0.6625,0.6576,0.6535,0.6519,0.6494,0.646,0.646,0.6453,0.64,0.6476,0.6589,0.6599,0.6447,0.6446,0.6445,0,0.7274,0.7197,0.7173,0.7143,0.7037,0.7028,0.6983,0.6912,0.6882,0.6828,0.6807,0.675,0.672,0.6678,0.66,0.6571,0.6569,0.6512,0.6536,0.6538,0.654,0.6541,0.6653,0.6522,0.6522,0.6522,0.6522,0,0.7348,0.7338,0.7221,0.7207,0.7193,0.7103,0.7092,0.7038,0.6977,0.6951,0.6869,0.6846,0.6744,0.6709,0.6648,0.6625,0.6611,0.6578,0.6563,0.6587,0.6591,0.657,0.6564,0.6524,0.6524,0.6523,0.6523,0,0.7468,0.7389,0.7358,0.7261,0.7236,0.723,0.7147,0.713,0.707,0.7038,0.7025,0.6931,0.6887,0.6805,0.6736,0.6695,0.6685,0.6657,0.6709,0.67,0.6729,0.6728,0.6831,0.6841,0.6704,0.6705,0.6707,0,0.7521,0.7512,0.7414,0.7391,0.735,0.7314,0.7283,0.7194,0.7165,0.7087,0.7079,0.7028,0.6983,0.6916,0.6841,0.6789,0.676,0.68,0.6751,0.6776,0.6762,0.6765,0.6764,0.6811,0.6813,0.6815,0.6816,0,0.7626,0.7588,0.7545,0.7491,0.7456,0.7408,0.7355,0.7341,0.7241,0.7212,0.7166,0.7131,0.7062,0.7013,0.695,0.6904,0.6844,0.6832,0.6835,0.686,0.6892,0.6877,0.6741,0.683,0.6828,0.6827,0.6827,0.6826,0.7714,0.7702,0.7633,0.7589,0.7541,0.7494,0.7474,0.7412,0.7372,0.731,0.726,0.7218,0.715,0.706,0.7018,0.6984,0.6956,0.696,0.6961,0.6964,0.6974,0.6896,0.6972,0.6971,0.6971,0.6971,0.697,0,0.7816,0.7767,0.7728,0.7658,0.7624,0.7571,0.7511,0.7486,0.745,0.7392,0.735,0.7298,0.725,0.7173,0.7119,0.7107,0.7078,0.7096,0.7097,0.7087,0.7002,0.7005,0.712,0.712,0.712,0.712,0.712,0.712,0.7865,0.7842,0.7796,0.7749,0.7699,0.7658,0.7629,0.7586,0.7539,0.7485,0.7446,0.7395,0.733,0.7271,0.7225,0.7203,0.7188,0.7215,0.7186,0.7107,0.7093,0.708,0.7083,0.7212,0.7212,0.7274,0.7275,0.7275]}]]